timestamp,surface_pressure_avg,surface_temp_avg,battery_voltage,lat,long
2021-10-25 00:09:01+00:00,311.543,10.64,12.57,47.84626,-54.09684
2021-10-25 00:19:01+00:00,314.8147,10.65,12.57,47.84626,-54.09684
2021-10-25 00:29:01+00:00,317.6047,10.66,12.57,47.84626,-54.09684
2021-10-25 00:39:01+00:00,323.6946,10.66,12.57,47.84626,-54.09684
2021-10-25 00:49:01+00:00,327.2012,10.64,12.57,47.84626,-54.09684
2021-10-25 00:59:01+00:00,330.3463,10.63,12.57,47.84626,-54.09684
2021-10-25 01:09:01+00:00,337.8447,10.61,12.57,47.84626,-54.09684
2021-10-25 01:19:01+00:00,342.1496,10.6,12.57,47.84626,-54.09684
2021-10-25 01:29:01+00:00,338.64300000000014,10.6,12.57,47.84626,-54.09684
2021-10-25 01:39:01+00:00,340.7397,10.6,12.57,47.84626,-54.09684
2021-10-25 01:49:01+00:00,346.4529,10.6,12.57,47.84626,-54.09684
2021-10-25 01:59:01+00:00,342.4262,10.69,12.57,47.84626,-54.09684
2021-10-25 02:09:01+00:00,338.208,10.7,12.57,47.84626,-54.09684
2021-10-25 02:19:00+00:00,344.4246,10.7,12.57,47.84626,-54.09684
2021-10-25 02:29:00+00:00,345.30800000000005,10.69,12.57,47.84626,-54.09684
2021-10-25 02:39:00+00:00,337.0714,10.77,12.57,47.84626,-54.09684
2021-10-25 02:49:00+00:00,336.483,10.8,12.57,47.84626,-54.09684
2021-10-25 02:59:00+00:00,339.7229,10.8,12.57,47.84626,-54.09684
2021-10-25 03:09:00+00:00,335.0030000000001,10.8,12.57,47.84626,-54.09684
2021-10-25 03:19:00+00:00,329.733,10.8,12.57,47.84626,-54.09684
2021-10-25 03:29:00+00:00,335.2596,10.8,12.57,47.84626,-54.09684
2021-10-25 03:39:00+00:00,332.6013,10.76,12.57,47.84626,-54.09684
2021-10-25 03:49:00+00:00,324.6163,10.8,12.57,47.84626,-54.09684
2021-10-25 03:59:00+00:00,321.7313,10.8,12.57,47.84626,-54.09684
2021-10-25 04:09:00+00:00,322.1463,10.77,12.57,47.84626,-54.09684
2021-10-25 04:19:01+00:00,316.243,10.78,12.57,47.84626,-54.09684
2021-10-25 04:29:01+00:00,310.0114,10.78,12.57,47.84626,-54.09684
2021-10-25 04:39:01+00:00,306.9597,10.7,12.57,47.84626,-54.09684
2021-10-25 04:49:01+00:00,299.528,10.7,12.57,47.84626,-54.09684
2021-10-25 04:59:01+00:00,293.4097,10.72,12.57,47.84626,-54.09684
2021-10-25 05:09:01+00:00,290.1398,10.7,12.57,47.84626,-54.09684
2021-10-25 05:19:01+00:00,283.0348,10.7,12.57,47.84626,-54.09684
2021-10-25 05:29:01+00:00,273.2264,10.7,12.57,47.84626,-54.09684
2021-10-25 05:39:01+00:00,267.8297,10.7,12.57,47.84626,-54.09684
2021-10-25 05:49:01+00:00,264.933,10.71,12.57,47.84626,-54.09684
2021-10-25 05:59:01+00:00,256.1047,10.7,12.57,47.84626,-54.09684
2021-10-25 06:09:01+00:00,248.4964,10.7,12.57,47.84626,-54.09684
2021-10-25 06:19:00+00:00,247.6797,10.7,12.57,47.84626,-54.09684
2021-10-25 06:29:00+00:00,244.3965,10.7,12.57,47.84626,-54.09684
2021-10-25 06:39:00+00:00,235.1148,10.7,12.57,47.84626,-54.09684
2021-10-25 06:49:00+00:00,230.0047,10.7,12.57,47.84626,-54.09684
2021-10-25 06:59:00+00:00,229.3531,10.7,12.57,47.84626,-54.09684
2021-10-25 07:09:00+00:00,223.4865,10.7,12.57,47.84626,-54.09684
2021-10-25 07:19:01+00:00,216.8548,10.7,12.57,47.84626,-54.09684
2021-10-25 07:29:01+00:00,216.9065,10.7,12.57,47.84626,-54.09684
2021-10-25 07:39:01+00:00,217.0281,10.7,12.57,47.84626,-54.09684
2021-10-25 07:49:01+00:00,211.7514,10.7,12.57,47.84626,-54.09684
2021-10-25 07:59:01+00:00,209.7031,10.7,12.57,47.84626,-54.09684
2021-10-25 08:09:01+00:00,214.3247,10.71,12.57,47.84626,-54.09684
2021-10-25 08:19:01+00:00,217.8481,10.7,12.57,47.84626,-54.09684
2021-10-25 08:29:01+00:00,215.9631,10.7,12.57,47.84626,-54.09684
2021-10-25 08:39:01+00:00,216.1848,10.69,12.57,47.84626,-54.09684
2021-10-25 08:49:01+00:00,219.6014,10.69,12.57,47.84626,-54.09684
2021-10-25 08:59:01+00:00,220.1064,10.7,12.57,47.84626,-54.09684
2021-10-25 09:09:01+00:00,222.5798,10.7,12.57,47.84626,-54.09684
2021-10-25 09:19:01+00:00,229.0581,10.7,12.49,47.84626,-54.09684
2021-10-25 09:29:01+00:00,234.4048,10.6,12.49,47.84626,-54.09684
2021-10-25 09:39:01+00:00,239.3447,10.6,12.49,47.84626,-54.09684
2021-10-25 09:49:01+00:00,242.843,10.57,12.49,47.84626,-54.09684
2021-10-25 09:59:01+00:00,245.3297,10.57,12.49,47.84626,-54.09684
2021-10-25 10:09:01+00:00,248.6681,10.6,12.49,47.84626,-54.09684
2021-10-25 10:19:01+00:00,254.3464,10.6,12.49,47.84626,-54.09684
2021-10-25 10:29:01+00:00,257.3148,10.57,12.49,47.84626,-54.09684
2021-10-25 10:39:01+00:00,260.2264,10.6,12.49,47.84626,-54.09684
2021-10-25 10:49:01+00:00,264.2498,10.59,12.49,47.84626,-54.09684
2021-10-25 10:59:01+00:00,270.3248,10.43,12.49,47.84626,-54.09684
2021-10-25 11:09:01+00:00,271.1797,10.4,12.49,47.84626,-54.09684
2021-10-25 11:19:01+00:00,274.5648,10.4,12.49,47.84626,-54.09684
2021-10-25 11:29:01+00:00,280.2747,10.55,12.49,47.84626,-54.09684
2021-10-25 11:39:01+00:00,287.3163,10.6,12.49,47.84626,-54.09684
2021-10-25 11:49:01+00:00,288.0014,10.6,12.49,47.84626,-54.09684
2021-10-25 11:59:01+00:00,291.3014,10.6,12.49,47.84626,-54.09684
2021-10-25 12:09:01+00:00,297.743,10.59,12.49,47.84626,-54.09684
2021-10-25 12:19:01+00:00,304.9446,10.59,12.57,47.84626,-54.09684
2021-10-25 12:29:01+00:00,309.3247,10.59,12.57,47.84626,-54.09684
2021-10-25 12:39:01+00:00,311.3781,10.6,12.57,47.84626,-54.09684
2021-10-25 12:49:01+00:00,316.3547,10.6,12.57,47.84626,-54.09684
2021-10-25 12:59:01+00:00,323.063,10.59,12.57,47.84626,-54.09684
2021-10-25 13:09:01+00:00,328.8113,10.59,12.57,47.84626,-54.09684
2021-10-25 13:19:01+00:00,332.2029,10.48,12.89,47.84626,-54.09684
2021-10-25 13:29:01+00:00,336.9313,10.45,12.89,47.84626,-54.09684
2021-10-25 13:39:01+00:00,342.0596,10.4,12.89,47.84626,-54.09684
2021-10-25 13:49:01+00:00,345.2563,10.4,12.89,47.84626,-54.09684
2021-10-25 13:59:01+00:00,346.8896,10.4,12.89,47.84626,-54.09684
2021-10-25 14:09:01+00:00,350.38800000000015,10.4,12.89,47.84626,-54.09684
2021-10-25 14:19:01+00:00,350.1364,10.4,14.24,47.84626,-54.09684
2021-10-25 14:29:01+00:00,348.68800000000016,10.4,14.24,47.84626,-54.09684
2021-10-25 14:39:01+00:00,351.3979,10.4,14.24,47.84626,-54.09684
2021-10-25 14:49:01+00:00,354.0429,10.4,14.24,47.84626,-54.09684
2021-10-25 14:59:01+00:00,354.1562,10.4,14.24,47.84626,-54.09684
2021-10-25 15:09:01+00:00,353.9579,10.4,14.24,47.84626,-54.09684
2021-10-25 15:19:01+00:00,353.2696,10.4,14.0,47.84626,-54.09684
2021-10-25 15:29:01+00:00,352.473,10.4,14.0,47.84626,-54.09684
2021-10-25 15:39:01+00:00,350.0629,10.4,14.0,47.84626,-54.09684
2021-10-25 15:49:01+00:00,347.6296,10.4,14.0,47.84626,-54.09684
2021-10-25 15:59:01+00:00,344.6279,10.4,14.0,47.84626,-54.09684
2021-10-25 16:09:01+00:00,341.0397,10.4,14.0,47.84626,-54.09684
2021-10-25 16:19:01+00:00,337.6280000000001,10.4,13.84,47.84626,-54.09684
2021-10-25 16:29:01+00:00,333.9979,10.44,13.84,47.84626,-54.09684
2021-10-25 16:39:01+00:00,331.8046,10.46,13.84,47.84626,-54.09684
2021-10-25 16:49:01+00:00,330.0247,10.49,13.84,47.84626,-54.09684
2021-10-25 16:59:01+00:00,326.9047,10.49,13.84,47.84626,-54.09684
2021-10-25 17:09:01+00:00,321.8163,10.5,13.84,47.84626,-54.09684
2021-10-25 17:19:01+00:00,318.738,10.5,14.08,47.84626,-54.09684
2021-10-25 17:29:01+00:00,314.3597,10.51,14.08,47.84626,-54.09684
2021-10-25 17:39:01+00:00,305.973,10.5,14.08,47.84626,-54.09684
2021-10-25 17:49:01+00:00,296.8697,10.4,14.08,47.84626,-54.09684
2021-10-25 17:59:01+00:00,289.9448,10.42,14.08,47.84626,-54.09684
2021-10-25 18:09:01+00:00,278.943,10.4,14.08,47.84626,-54.09684
2021-10-25 18:19:01+00:00,265.4631,10.4,14.08,47.84626,-54.09684
2021-10-25 18:29:01+00:00,261.3198,10.42,14.08,47.84626,-54.09684
2021-10-25 18:39:01+00:00,259.0281,10.49,14.08,47.84626,-54.09684
2021-10-25 18:49:01+00:00,252.0814,10.5,14.08,47.84626,-54.09684
2021-10-25 18:59:01+00:00,245.2464,10.49,14.08,47.84626,-54.09684
2021-10-25 19:09:01+00:00,242.4297,10.46,14.08,47.84626,-54.09684
2021-10-25 19:19:01+00:00,240.9331,10.44,13.76,47.84626,-54.09684
2021-10-25 19:29:01+00:00,235.0497,10.45,13.76,47.84626,-54.09684
2021-10-25 19:39:01+00:00,231.3814,10.5,13.76,47.84626,-54.09684
2021-10-25 19:49:01+00:00,231.453,10.57,13.76,47.84626,-54.09684
2021-10-25 19:59:01+00:00,233.8064,10.59,13.76,47.84626,-54.09684
2021-10-25 20:09:01+00:00,234.2931,10.58,13.76,47.84626,-54.09684
2021-10-25 20:19:01+00:00,236.7764,10.57,13.37,47.84626,-54.09684
2021-10-25 20:29:01+00:00,241.4564,10.57,13.37,47.84626,-54.09684
2021-10-25 20:39:01+00:00,242.6748,10.5,13.37,47.84626,-54.09684
2021-10-25 20:49:01+00:00,245.7864,10.47,13.37,47.84626,-54.09684
2021-10-25 20:59:01+00:00,249.9264,10.5,13.37,47.84626,-54.09684
2021-10-25 21:09:01+00:00,252.0231,10.5,13.37,47.84626,-54.09684
2021-10-25 21:19:01+00:00,252.593,10.5,13.05,47.84626,-54.09684
2021-10-25 21:29:01+00:00,260.5614,10.5,13.05,47.84626,-54.09684
2021-10-25 21:39:01+00:00,266.6598,10.5,13.05,47.84626,-54.09684
2021-10-25 21:49:01+00:00,268.9931,10.5,13.05,47.84626,-54.09684
2021-10-25 21:59:01+00:00,269.5814,10.5,13.05,47.84626,-54.09684
2021-10-25 22:09:01+00:00,274.7598,10.5,13.05,47.84626,-54.09684
2021-10-25 22:19:01+00:00,274.5314,10.4,12.81,47.84626,-54.09684
2021-10-25 22:29:01+00:00,274.9997,10.37,12.81,47.84626,-54.09684
2021-10-25 22:39:01+00:00,279.3931,10.37,12.81,47.84626,-54.09684
2021-10-25 22:49:01+00:00,289.0864,10.34,12.81,47.84626,-54.09684
2021-10-25 22:59:01+00:00,290.8997,10.2,12.81,47.84626,-54.09684
2021-10-25 23:09:01+00:00,292.3698,10.2,12.81,47.84626,-54.09684
2021-10-25 23:19:01+00:00,297.458,10.34,12.73,47.84626,-54.09684
2021-10-25 23:29:01+00:00,302.5381,10.5,12.73,47.84626,-54.09684
2021-10-25 23:39:01+00:00,302.2131,10.6,12.73,47.84626,-54.09684
2021-10-25 23:49:01+00:00,303.9081,10.6,12.73,47.84626,-54.09684
2021-10-25 23:59:01+00:00,308.6431,10.6,12.73,47.84626,-54.09684
